Regional Weather Roundup
Issued by NWS

Home | Current Version | Previous Version | Text Only | Print | Product List | Glossary On
Versions: 1 2 3 4 5 6 7 8 9 10 11 12 13 14 15 16 17 18 19 20 21 22 23 24 25 26 27 28 29 30 31 32 33 34 35 36 37 38 39 40 41 42 43 44 45 46 47 48 49 50
000
ASMX46 KSGX 300810
RWRMX

MEXICAN WEATHER ROUNDUP
NATIONAL WEATHER SERVICE SAN DIEGO CA
100 AM PDT SAT AUG 30 2014

BAJA CALIFORNIA

CITY           SKY/WX    TMP DP  RH WIND       PRES   REMARKS
ENSENADA NW      N/A     69  32  25 S2        29.81S
TIJUANA        CLOUDY    66  61  82 CALM      29.87

NORTHWESTERN MEXICO

CITY           SKY/WX    TMP DP  RH WIND       PRES   REMARKS

NORTHEASTERN MEXICO

CITY           SKY/WX    TMP DP  RH WIND       PRES   REMARKS
MONTERREY      CLEAR     77  68  73 CALM      29.88F
REYNOSA        MOCLDY    77  73  88 CALM      29.85F
VICTORIA       PTCLDY    81  68  65 S10       29.88F

WESTERN MEXICO

CITY           SKY/WX    TMP DP  RH WIND       PRES   REMARKS
DURANGO        CLEAR     64  54  68 CALM      30.19
GUADALAJARA    MOCLDY    63  59  88 CALM      30.12
MAZATLAN       CLOUDY    79  75  89 NE7       29.84R THUNDER
PTO. VALLARTA  CLOUDY    77  73  88 N5        29.80F
ZACATECAS      PTCLDY    63  52  67 SE7       30.24

CENTRAL MEXICO

CITY           SKY/WX    TMP DP  RH WIND       PRES   REMARKS
LEON           PTCLDY    59  55  88 N6        30.23S
MEXICO CITY    PTCLDY    63  50  63 NW12      30.26S
MORELIA        PTCLDY    59  59 100 CALM      30.17
QUERETARO      PTCLDY    59  55  88 E6        30.25F
S. LUIS POTOSI MOCLDY    64  57  77 E7        30.21R
TOLUCA         PTCLDY    52  46  82 S5        30.32

SOUTHERN MEXICO

CITY           SKY/WX    TMP DP  RH WIND       PRES   REMARKS
ACAPULCO       MOCLDY    81  77  89 N7        29.83S
TAPACHULA      MOCLDY    75  73  94 CALM      29.88S

YUCATAN PENINSULA

CITY           SKY/WX    TMP DP  RH WIND       PRES   REMARKS
CANCUN         PTCLDY    82  77  83 NE3       29.93F
COZUMEL          N/A    N/A N/A N/A MISG        N/A
MERIDA         MOCLDY    77  72  83 E6        29.92S

$$



USA.gov is the U.S. government's official web portal to all federal, state and local government web resources and services.